Location: The Saddle
(36.8333°N, 80.3417°W)
Time: 07:23:58
(UTC-05:00)

Vanguard 3 - Pass Details

Date: 10 February 2026
Orbit: 507 x 3205 km, 33.3° (Epoch: 5 March)

Event Time Altitude Azimuth Distance (km) Brightness Sun altitude
Rises 19:10:53 0° 244° (WSW) 3,722 12.0 -15.4°
Reaches altitude 10° 19:14:09 10° 238° (WSW) 2,417 10.6 -16.0°
Maximum altitude 19:19:04 39° 169° (S) 922 7.4 -17.0°
Enters shadow 19:20:34 28° 123° (ESE) 1,081 7.4 -17.3°
